Skip Page Navigation
NASA JPL Caltech
NASA Logo - Jet Propulsion Laboratory + View the NASA Portal
+ Near-Earth Object (NEO) Program
Search JPL
JPL Home Earth Solar System Stars & Galaxies Technology
JPL Solar System Dynamics
BODIES ORBITS EPHEMERIDES TOOLS PHYSICAL DATA DISCOVERY FAQ SITE MAP
JPL Small-Body Database Browser
Search: [ help ]  
15766 Strahlenberg (1993 BD13)
Classification: Main-belt Asteroid          SPK-ID: 2015766
Ephemeris | Orbit Diagram | Orbital Elements | Physical Parameters | Discovery Circumstances | Close-Approach Data ]

[ show orbit diagram ]
Orbital Elements at Epoch 2457000.5 (2014-Dec-09.0) TDB
Reference: JPL 11 (heliocentric ecliptic J2000)
 Element Value Uncertainty (1-sigma)   Units 
e .04533193233455546 7.165e-08  
a 3.16293666655418 3.867e-08 AU
q 3.019554635607462 2.2988e-07 AU
i 5.14086274339109 6.9951e-06 deg
node 298.6717061139157 8.4634e-05 deg
peri 63.87392156272423 0.00012423 deg
M 82.7683825508186 8.6374e-05 deg
tp 2456528.114956968973
(2013-Aug-23.61495697)
0.00049592 JED
period 2054.632581309127
5.63
3.768e-05
1.032e-07
d
yr
n .1752138086755262 3.2133e-09 deg/d
Q 3.306318697500899 4.0423e-08 AU
  Orbit Determination Parameters
   # obs. used (total)      912  
   data-arc span      8345 days (22.85 yr)  
   first obs. used      1992-01-28  
   last obs. used      2014-12-03  
   planetary ephem.      DE431  
   SB-pert. ephem.      SB431-BIG16  
   condition code      0  
   fit RMS      .52785  
   data source      ORB  
   producer      Otto Matic  
   solution date      2015-Jan-08 02:28:45  

Additional Information
 Earth MOID = 2.02064 AU 
 T_jup = 3.197 
[ show covariance matrix ]

Ephemeris | Orbit Diagram | Orbital Elements | Physical Parameters | Discovery Circumstances | Close-Approach Data ]

Physical Parameter Table
Parameter Symbol Value Units Sigma Reference Notes
absolute magnitude H 12.6 mag n/a MPO319281  

15766 Strahlenberg           Discovered 1993 Jan. 22 by E. W. Elst at the European Southern Observatory.
Philip Johan von Strahlenberg (1676-1747), a Swedish officer and geographer, was kept prisoner in 1709 at Poltawa and during 1711-1721 sent to Tobolsk, where he investigated the geography and nature of Siberia. He also studied the languages of the Tatars and Mongols.
NOTE: some special characters may not display properly (any characters within {} are an attempt to place the proper accent above a character)
Reference: 20060613/MPCPages.arcLast Updated: 2008-05-22

[ show close-approach data ]
Alternate Designations
 1993 BD13 = 1992 BT3 
Ephemeris | Orbit Diagram | Orbital Elements | Physical Parameters | Discovery Circumstances | Close-Approach Data ]
ABOUT SSD CREDITS/AWARDS PRIVACY/COPYRIGHT GLOSSARY LINKS
FirstGov 2015-Jan-28 22:15 UT
(server date/time)  
NASA Home Page
Site Manager:   Donald K. Yeomans
Webmaster  Alan B. Chamberlin